Location: Central Falls
(41.8900°N, 71.3929°W)
Time: 13:38:51
(UTC+00:00)

Vanguard 2 - Pass Details

Date: 05 December 2023
Orbit: 554 x 2918 km, 32.9° (Epoch: 04 March)

Event Time Altitude Azimuth Distance (km) Brightness Sun altitude
Rises 01:30:17 0° 231° (SW) 6,730 12.7 -46.8°
Reaches altitude 10° 01:35:02 10° 226° (SW) 5,742 12.2 -47.6°
Enters shadow 01:46:10 38° 197° (SSW) 3,690 10.7 -49.6°
